Terminal Aerodrome Forecast
Issued by NWS San Angelo, TX

Home | Current Version | Previous Version | Text Only | Print | Product List | Glossary On
Versions: 1 2 3 4 5 6 7 8 9 10 11 12 13 14 15
000
FTUS44 KSJT 121100
TAFABI
TAF
KABI 121128Z 1212/1312 18010KT P6SM FEW200
     FM121600 17014G23KT P6SM FEW090
     FM130100 16008KT P6SM SKC=

USA.gov is the U.S. government's official web portal to all federal, state and local government web resources and services.